| time (UTC) | temp F | wind direction | speed MPH | gust MPH | rain 1hr in | rain 24hr in | rain mn in | humidity % | barometer mb |
| 20260509211021 | 63 | 282 | 4.0 | 8.0 | 0.00 | 0.00 | 0.00 | 67 | 1020.3 |
| 20260509210521 | 63 | 204 | 4.0 | 8.0 | 0.00 | 0.00 | 0.00 | 69 | 1020.3 |
| 20260509210039 | 62 | 276 | 5.0 | 11.0 | 0.00 | 0.00 | 0.00 | 71 | 1020.4 |
| 20260509205521 | 62 | 304 | 7.0 | 11.0 | 0.00 | 0.00 | 0.00 | 69 | 1020.3 |
| 20260509205021 | 63 | 281 | 5.0 | 8.0 | 0.00 | 0.00 | 0.00 | 68 | 1020.5 |
| 20260509204537 | 63 | 233 | 3.0 | 8.0 | 0.00 | 0.00 | 0.00 | 70 | 1020.4 |
| 20260509204021 | 62 | 301 | 5.0 | 8.0 | 0.00 | 0.00 | 0.00 | 70 | 1020.4 |
| 20260509203522 | 62 | 304 | 5.0 | 8.0 | 0.00 | 0.00 | 0.00 | 70 | 1020.2 |
| 20260509203051 | 63 | 293 | 4.0 | 10.0 | 0.00 | 0.00 | 0.00 | 70 | 1020.4 |
| 20260509202521 | 63 | 255 | 5.0 | 10.0 | 0.00 | 0.00 | 0.00 | 70 | 1020.4 |
| 20260509202020 | 62 | 248 | 6.0 | 10.0 | 0.00 | 0.00 | 0.00 | 69 | 1020.4 |
| 20260509201541 | 62 | 300 | 7.0 | 9.0 | 0.00 | 0.00 | 0.00 | 67 | 1020.5 |
| 20260509201026 | 63 | 264 | 5.0 | 9.0 | 0.00 | 0.00 | 0.00 | 66 | 1020.6 |
| 20260509200520 | 63 | 253 | 5.0 | 9.0 | 0.00 | 0.00 | 0.00 | 67 | 1020.6 |
| 20260509200057 | 63 | 300 | 6.0 | 9.0 | 0.00 | 0.00 | 0.00 | 67 | 1020.8 |
| 20260509195521 | 63 | 282 | 4.0 | 8.0 | 0.00 | 0.00 | 0.00 | 67 | 1020.7 |
| 20260509195020 | 63 | 268 | 5.0 | 8.0 | 0.00 | 0.00 | 0.00 | 68 | 1020.8 |
| 20260509194538 | 62 | 293 | 4.0 | 8.0 | 0.00 | 0.00 | 0.00 | 68 | 1020.7 |
| 20260509194022 | 62 | 296 | 5.0 | 8.0 | 0.00 | 0.00 | 0.00 | 71 | 1020.8 |
| 20260509193521 | 62 | 313 | 5.0 | 8.0 | 0.00 | 0.00 | 0.00 | 72 | 1020.9 |
| 20260509193038 | 61 | 288 | 5.0 | 8.0 | 0.00 | 0.00 | 0.00 | 71 | 1021.0 |
| 20260509192520 | 61 | 302 | 6.0 | 9.0 | 0.00 | 0.00 | 0.00 | 73 | 1021.0 |
| 20260509192021 | 61 | 287 | 6.0 | 9.0 | 0.00 | 0.00 | 0.00 | 72 | 1021.0 |
| 20260509191548 | 61 | 302 | 6.0 | 9.0 | 0.00 | 0.00 | 0.00 | 72 | 1021.0 |
| 20260509191020 | 61 | 297 | 7.0 | 10.0 | 0.00 | 0.00 | 0.00 | 73 | 1021.1 |
| 20260509190522 | 61 | 321 | 7.0 | 10.0 | 0.00 | 0.00 | 0.00 | 71 | 1021.1 |
| 20260509190039 | 62 | 278 | 6.0 | 10.0 | 0.00 | 0.00 | 0.00 | 70 | 1021.1 |
| 20260509185521 | 63 | 299 | 7.0 | 9.0 | 0.00 | 0.00 | 0.00 | 69 | 1021.3 |
| 20260509185022 | 63 | 302 | 5.0 | 9.0 | 0.00 | 0.00 | 0.00 | 67 | 1021.2 |
| 20260509184544 | 64 | 329 | 4.0 | 8.0 | 0.00 | 0.00 | 0.00 | 65 | 1021.1 |
| 20260509184021 | 65 | 2 | 2.0 | 7.0 | 0.00 | 0.00 | 0.00 | 64 | 1021.0 |
| 20260509183521 | 65 | 217 | 3.0 | 7.0 | 0.00 | 0.00 | 0.00 | 65 | 1021.1 |
| 20260509183043 | 65 | 215 | 2.0 | 6.0 | 0.00 | 0.00 | 0.00 | 65 | 1021.1 |
| 20260509182520 | 65 | 261 | 2.0 | 4.0 | 0.00 | 0.00 | 0.00 | 65 | 1021.3 |
| 20260509182021 | 65 | 255 | 2.0 | 4.0 | 0.00 | 0.00 | 0.00 | 67 | 1021.2 |
| 20260509181604 | 65 | 286 | 2.0 | 4.0 | 0.00 | 0.00 | 0.00 | 66 | 1021.4 |
| 20260509181021 | 65 | 158 | 1.0 | 5.0 | 0.00 | 0.00 | 0.00 | 66 | 1021.4 |
| 20260509180521 | 64 | 143 | 1.0 | 5.0 | 0.00 | 0.00 | 0.00 | 66 | 1021.5 |
| 20260509180109 | 64 | 190 | 2.0 | 4.0 | 0.00 | 0.00 | 0.00 | 66 | 1021.4 |
| 20260509175521 | 64 | 163 | 1.0 | 4.0 | 0.00 | 0.00 | 0.00 | 65 | 1021.4 |
| 20260509175021 | 64 | 193 | 2.0 | 4.0 | 0.00 | 0.00 | 0.00 | 67 | 1021.5 |
| 20260509174541 | 63 | 0 | 2.0 | 6.0 | 0.00 | 0.00 | 0.00 | 69 | 1021.4 |
| 20260509174020 | 62 | 162 | 3.0 | 6.0 | 0.00 | 0.00 | 0.00 | 71 | 1021.5 |
| 20260509173520 | 63 | 131 | 3.0 | 7.0 | 0.00 | 0.00 | 0.00 | 69 | 1021.4 |
| 20260509173044 | 62 | 156 | 2.0 | 7.0 | 0.00 | 0.00 | 0.00 | 71 | 1021.5 |
| 20260509172525 | 62 | 186 | 4.0 | 7.0 | 0.00 | 0.00 | 0.00 | 68 | 1021.5 |
| 20260509172020 | 61 | 167 | 2.0 | 5.0 | 0.00 | 0.00 | 0.00 | 73 | 1021.6 |
| 20260509171549 | 61 | 145 | 3.0 | 5.0 | 0.00 | 0.00 | 0.00 | 70 | 1021.6 |
| 20260509171021 | 61 | 354 | 3.0 | 5.0 | 0.00 | 0.00 | 0.00 | 70 | 1021.7 |
| 20260509170521 | 61 | 134 | 2.0 | 5.0 | 0.00 | 0.00 | 0.00 | 69 | 1021.6 |
| 20260509170048 | 61 | 131 | 3.0 | 5.0 | 0.00 | 0.00 | 0.00 | 70 | 1021.7 |
| 20260509165521 | 60 | 148 | 2.0 | 6.0 | 0.00 | 0.00 | 0.00 | 72 | 1021.8 |
| 20260509165021 | 60 | 77 | 3.0 | 10.0 | 0.00 | 0.00 | 0.00 | 71 | 1021.8 |
| 20260509164544 | 60 | 34 | 4.0 | 10.0 | 0.00 | 0.00 | 0.00 | 71 | 1021.8 |
| 20260509164020 | 60 | 75 | 5.0 | 10.0 | 0.00 | 0.00 | 0.00 | 72 | 1021.7 |
| 20260509163525 | 60 | 27 | 3.0 | 10.0 | 0.00 | 0.00 | 0.00 | 72 | 1021.8 |
| 20260509163043 | 60 | 89 | 3.0 | 10.0 | 0.00 | 0.00 | 0.00 | 71 | 1021.8 |
| 20260509162521 | 60 | 108 | 5.0 | 9.0 | 0.00 | 0.00 | 0.00 | 73 | 1021.8 |
| 20260509162021 | 59 | 80 | 4.0 | 9.0 | 0.00 | 0.00 | 0.00 | 73 | 1022.0 |
| 20260509161547 | 59 | 37 | 3.0 | 7.0 | 0.00 | 0.00 | 0.00 | 74 | 1022.0 |
| 20260509161021 | 59 | 96 | 3.0 | 7.0 | 0.00 | 0.00 | 0.00 | 75 | 1022.1 |
| 20260509160521 | 59 | 70 | 4.0 | 6.0 | 0.00 | 0.00 | 0.00 | 74 | 1022.2 |
| 20260509160042 | 59 | 94 | 4.0 | 6.0 | 0.00 | 0.00 | 0.00 | 74 | 1022.4 |
| 20260509155522 | 59 | 83 | 3.0 | 7.0 | 0.00 | 0.00 | 0.00 | 74 | 1022.4 |
| 20260509155025 | 58 | 92 | 4.0 | 8.0 | 0.00 | 0.00 | 0.00 | 74 | 1022.4 |
| 20260509154537 | 58 | 83 | 5.0 | 8.0 | 0.00 | 0.00 | 0.00 | 74 | 1022.4 |
| 20260509154027 | 58 | 84 | 3.0 | 7.0 | 0.00 | 0.00 | 0.00 | 77 | 1022.4 |
| 20260509153522 | 57 | 30 | 2.0 | 8.0 | 0.00 | 0.00 | 0.00 | 79 | 1022.4 |
| 20260509153056 | 56 | 58 | 3.0 | 8.0 | 0.00 | 0.00 | 0.00 | 79 | 1022.5 |
| 20260509152522 | 56 | 101 | 4.0 | 8.0 | 0.00 | 0.00 | 0.00 | 78 | 1022.5 |
| 20260509152023 | 56 | 82 | 3.0 | 7.0 | 0.00 | 0.00 | 0.00 | 79 | 1022.7 |
| 20260509151551 | 56 | 27 | 3.0 | 7.0 | 0.00 | 0.00 | 0.00 | 80 | 1022.6 |
| 20260509151023 | 55 | 82 | 3.0 | 7.0 | 0.00 | 0.00 | 0.00 | 80 | 1022.5 |
| 20260509150527 | 55 | 82 | 5.0 | 7.0 | 0.00 | 0.00 | 0.00 | 79 | 1022.6 |
| 20260509150042 | 55 | 80 | 3.0 | 6.0 | 0.00 | 0.00 | 0.00 | 81 | 1022.6 |
| 20260509145522 | 55 | 75 | 4.0 | 6.0 | 0.00 | 0.00 | 0.00 | 80 | 1022.6 |
| 20260509145023 | 54 | 76 | 3.0 | 7.0 | 0.00 | 0.00 | 0.00 | 81 | 1022.6 |
| 20260509144538 | 54 | 75 | 4.0 | 8.0 | 0.00 | 0.00 | 0.00 | 81 | 1022.7 |
| 20260509144022 | 54 | 77 | 5.0 | 8.0 | 0.00 | 0.00 | 0.00 | 81 | 1022.6 |
| 20260509143522 | 54 | 101 | 3.0 | 5.0 | 0.00 | 0.00 | 0.00 | 82 | 1022.7 |
| 20260509143056 | 54 | 98 | 4.0 | 6.0 | 0.00 | 0.00 | 0.00 | 82 | 1022.6 |
| 20260509142522 | 53 | 80 | 4.0 | 6.0 | 0.00 | 0.00 | 0.00 | 82 | 1022.7 |
| 20260509142022 | 53 | 77 | 3.0 | 6.0 | 0.00 | 0.00 | 0.00 | 83 | 1022.8 |
| 20260509141543 | 53 | 103 | 3.0 | 6.0 | 0.00 | 0.00 | 0.00 | 83 | 1022.8 |
| 20260509141023 | 53 | 71 | 3.0 | 6.0 | 0.00 | 0.00 | 0.00 | 83 | 1022.7 |
| 20260509140522 | 53 | 79 | 4.0 | 6.0 | 0.00 | 0.00 | 0.00 | 83 | 1022.7 |
| 20260509140046 | 53 | 85 | 4.0 | 6.0 | 0.00 | 0.00 | 0.00 | 83 | 1022.7 |
| 20260509135524 | 53 | 49 | 0.0 | 0.0 | 0.00 | 0.00 | 0.00 | 85 | 1022.8 |
| 20260509135022 | 53 | 0 | 0.0 | 0.0 | 0.00 | 0.00 | 0.00 | 85 | 1022.8 |
| 20260509134542 | 52 | 0 | 0.0 | 0.0 | 0.00 | 0.00 | 0.00 | 86 | 1022.9 |
| 20260509134026 | 52 | 0 | 0.0 | 0.0 | 0.00 | 0.00 | 0.00 | 86 | 1022.8 |
| 20260509133524 | 52 | 0 | 0.0 | 0.0 | 0.00 | 0.00 | 0.00 | 86 | 1022.9 |
| 20260509133055 | 52 | 0 | 0.0 | 0.0 | 0.00 | 0.00 | 0.00 | 86 | 1022.8 |
| 20260509132523 | 52 | 0 | 0.0 | 0.0 | 0.00 | 0.00 | 0.00 | 86 | 1022.8 |
| 20260509132022 | 52 | 0 | 0.0 | 0.0 | 0.00 | 0.00 | 0.00 | 87 | 1022.8 |
| 20260509131540 | 52 | 0 | 0.0 | 1.0 | 0.00 | 0.00 | 0.00 | 87 | 1022.8 |
| 20260509131023 | 52 | 0 | 0.0 | 2.0 | 0.00 | 0.00 | 0.00 | 87 | 1022.8 |
| 20260509130523 | 52 | 0 | 1.0 | 2.0 | 0.00 | 0.00 | 0.00 | 87 | 1022.7 |
| 20260509130037 | 52 | 86 | 0.0 | 2.0 | 0.00 | 0.00 | 0.00 | 87 | 1022.7 |
| 20260509125523 | 52 | 52 | 0.0 | 2.0 | 0.00 | 0.00 | 0.00 | 87 | 1022.6 |
| 20260509125020 | 51 | 51 | 1.0 | 2.0 | 0.00 | 0.00 | 0.00 | 86 | 1022.6 |
| 20260509124549 | 52 | 0 | 0.0 | 0.0 | 0.00 | 0.00 | 0.00 | 87 | 1022.6 |
| 20260509124020 | 52 | 0 | 0.0 | 0.0 | 0.00 | 0.00 | 0.00 | 88 | 1022.6 |
| 20260509123520 | 51 | 0 | 0.0 | 0.0 | 0.00 | 0.00 | 0.00 | 89 | 1022.7 |
| 20260509123046 | 51 | 0 | 0.0 | 0.0 | 0.00 | 0.00 | 0.00 | 89 | 1022.7 |
| 20260509122521 | 51 | 0 | 0.0 | 0.0 | 0.00 | 0.00 | 0.00 | 89 | 1022.7 |
| 20260509122022 | 51 | 0 | 0.0 | 0.0 | 0.00 | 0.00 | 0.00 | 90 | 1022.7 |
| 20260509121549 | 51 | 0 | 0.0 | 0.0 | 0.00 | 0.00 | 0.00 | 90 | 1022.7 |
| 20260509121020 | 50 | 0 | 0.0 | 0.0 | 0.00 | 0.00 | 0.00 | 90 | 1022.7 |
| 20260509120524 | 50 | 0 | 0.0 | 0.0 | 0.00 | 0.00 | 0.00 | 90 | 1022.8 |
| 20260509120052 | 50 | 0 | 0.0 | 0.0 | 0.00 | 0.00 | 0.00 | 90 | 1022.8 |
| 20260509115521 | 50 | 0 | 0.0 | 0.0 | 0.00 | 0.00 | 0.00 | 90 | 1022.8 |
| 20260509115021 | 50 | 0 | 0.0 | 0.0 | 0.00 | 0.00 | 0.00 | 90 | 1022.9 |
| 20260509114538 | 50 | 0 | 0.0 | 0.0 | 0.00 | 0.00 | 0.00 | 90 | 1022.8 |
| 20260509114021 | 50 | 0 | 0.0 | 0.0 | 0.00 | 0.00 | 0.00 | 90 | 1022.8 |
| 20260509113521 | 50 | 0 | 0.0 | 0.0 | 0.00 | 0.00 | 0.00 | 90 | 1022.8 |
| 20260509113039 | 50 | 0 | 0.0 | 0.0 | 0.00 | 0.00 | 0.00 | 91 | 1022.8 |
| 20260509112520 | 50 | 0 | 0.0 | 0.0 | 0.00 | 0.00 | 0.00 | 91 | 1022.8 |
| 20260509112020 | 49 | 0 | 0.0 | 0.0 | 0.00 | 0.00 | 0.00 | 91 | 1022.8 |
| 20260509111546 | 49 | 0 | 0.0 | 0.0 | 0.00 | 0.00 | 0.00 | 91 | 1022.8 |
| 20260509111021 | 49 | 0 | 0.0 | 0.0 | 0.00 | 0.00 | 0.00 | 90 | 1022.8 |
| 20260509110520 | 49 | 0 | 0.0 | 0.0 | 0.00 | 0.00 | 0.00 | 91 | 1022.7 |
| 20260509110046 | 49 | 0 | 0.0 | 1.0 | 0.00 | 0.00 | 0.00 | 90 | 1022.8 |
| 20260509105524 | 49 | 0 | 0.0 | 1.0 | 0.00 | 0.00 | 0.00 | 91 | 1022.8 |
| 20260509105020 | 49 | 288 | 0.0 | 1.0 | 0.00 | 0.00 | 0.00 | 91 | 1022.8 |
| 20260509104559 | 49 | 288 | 0.0 | 0.0 | 0.00 | 0.00 | 0.00 | 92 | 1022.8 |
| 20260509104021 | 48 | 0 | 0.0 | 0.0 | 0.00 | 0.00 | 0.00 | 92 | 1022.7 |
| 20260509103521 | 48 | 0 | 0.0 | 1.0 | 0.00 | 0.00 | 0.00 | 92 | 1022.8 |
| 20260509103042 | 48 | 0 | 0.0 | 1.0 | 0.00 | 0.00 | 0.00 | 92 | 1022.8 |
| 20260509102521 | 48 | 289 | 1.0 | 1.0 | 0.00 | 0.00 | 0.00 | 92 | 1022.7 |
| 20260509102021 | 47 | 289 | 0.0 | 1.0 | 0.00 | 0.00 | 0.00 | 92 | 1022.8 |
| 20260509101541 | 47 | 288 | 0.0 | 1.0 | 0.00 | 0.00 | 0.00 | 92 | 1022.8 |
| 20260509101020 | 47 | 288 | 1.0 | 2.0 | 0.00 | 0.00 | 0.00 | 92 | 1022.7 |
| 20260509100520 | 47 | 308 | 1.0 | 2.0 | 0.00 | 0.00 | 0.00 | 91 | 1022.7 |
| 20260509100040 | 47 | 321 | 1.0 | 1.0 | 0.00 | 0.00 | 0.00 | 92 | 1022.8 |
| 20260509095521 | 47 | 320 | 0.0 | 2.0 | 0.00 | 0.00 | 0.00 | 91 | 1022.7 |
| 20260509095020 | 47 | 0 | 0.0 | 2.0 | 0.00 | 0.00 | 0.00 | 91 | 1022.6 |
| 20260509094537 | 47 | 293 | 2.0 | 2.0 | 0.00 | 0.00 | 0.00 | 91 | 1022.5 |
| 20260509094020 | 47 | 265 | 1.0 | 2.0 | 0.00 | 0.00 | 0.00 | 91 | 1022.6 |
| 20260509093520 | 47 | 312 | 1.0 | 1.0 | 0.00 | 0.00 | 0.00 | 91 | 1022.5 |
| 20260509093042 | 47 | 312 | 0.0 | 1.0 | 0.00 | 0.00 | 0.00 | 91 | 1022.5 |
| 20260509092521 | 47 | 312 | 1.0 | 2.0 | 0.00 | 0.00 | 0.00 | 91 | 1022.5 |
| 20260509092021 | 47 | 307 | 1.0 | 2.0 | 0.00 | 0.00 | 0.00 | 91 | 1022.5 |
| 20260509091545 | 47 | 287 | 1.0 | 2.0 | 0.00 | 0.00 | 0.00 | 91 | 1022.5 |
| 20260509091021 | 48 | 287 | 1.0 | 2.0 | 0.00 | 0.00 | 0.00 | 90 | 1022.5 |
| 20260509090520 | 48 | 0 | 0.0 | 1.0 | 0.00 | 0.00 | 0.00 | 90 | 1022.4 |
| 20260509090051 | 48 | 304 | 1.0 | 1.0 | 0.00 | 0.00 | 0.00 | 90 | 1022.5 |
| 20260509085520 | 48 | 304 | 1.0 | 1.0 | 0.00 | 0.00 | 0.00 | 90 | 1022.3 |
| 20260509085020 | 48 | 307 | 0.0 | 1.0 | 0.00 | 0.00 | 0.00 | 90 | 1022.5 |
| 20260509084539 | 48 | 307 | 0.0 | 1.0 | 0.00 | 0.00 | 0.00 | 90 | 1022.4 |
| 20260509084024 | 48 | 307 | 0.0 | 1.0 | 0.00 | 0.00 | 0.00 | 90 | 1022.4 |
| 20260509083520 | 48 | 297 | 1.0 | 1.0 | 0.00 | 0.00 | 0.00 | 90 | 1022.5 |
| 20260509083036 | 48 | 286 | 1.0 | 1.0 | 0.00 | 0.00 | 0.00 | 89 | 1022.5 |
| 20260509082521 | 49 | 286 | 1.0 | 2.0 | 0.00 | 0.00 | 0.00 | 88 | 1022.5 |
| 20260509082021 | 49 | 286 | 1.0 | 2.0 | 0.00 | 0.00 | 0.00 | 88 | 1022.6 |
| 20260509081549 | 49 | 318 | 0.0 | 1.0 | 0.00 | 0.00 | 0.00 | 89 | 1022.5 |
| 20260509081025 | 49 | 318 | 0.0 | 1.0 | 0.00 | 0.00 | 0.00 | 88 | 1022.5 |
| 20260509080522 | 49 | 0 | 0.0 | 1.0 | 0.00 | 0.00 | 0.00 | 88 | 1022.5 |
| 20260509080041 | 49 | 0 | 0.0 | 1.0 | 0.00 | 0.00 | 0.00 | 88 | 1022.6 |
| 20260509075523 | 49 | 317 | 1.0 | 1.0 | 0.00 | 0.00 | 0.00 | 88 | 1022.5 |
| 20260509075021 | 50 | 318 | 0.0 | 1.0 | 0.00 | 0.00 | 0.00 | 87 | 1022.5 |
| 20260509074542 | 50 | 0 | 0.0 | 1.0 | 0.00 | 0.00 | 0.00 | 87 | 1022.5 |
| 20260509074020 | 50 | 314 | 0.0 | 1.0 | 0.00 | 0.00 | 0.00 | 85 | 1022.4 |
| 20260509073521 | 51 | 314 | 1.0 | 1.0 | 0.00 | 0.00 | 0.00 | 86 | 1022.4 |
| 20260509073045 | 51 | 311 | 1.0 | 1.0 | 0.00 | 0.00 | 0.00 | 85 | 1022.4 |
| 20260509072521 | 51 | 298 | 0.0 | 1.0 | 0.00 | 0.00 | 0.00 | 84 | 1022.4 |
| 20260509072020 | 52 | 0 | 0.0 | 2.0 | 0.00 | 0.00 | 0.00 | 84 | 1022.4 |
| 20260509071546 | 52 | 17 | 1.0 | 2.0 | 0.00 | 0.00 | 0.00 | 84 | 1022.4 |
| 20260509071020 | 52 | 39 | 1.0 | 2.0 | 0.00 | 0.00 | 0.00 | 83 | 1022.5 |
| 20260509070526 | 53 | 30 | 1.0 | 2.0 | 0.00 | 0.00 | 0.00 | 82 | 1022.5 |
| 20260509070051 | 54 | 31 | 1.0 | 2.0 | 0.00 | 0.00 | 0.00 | 81 | 1022.4 |
| 20260509065522 | 54 | 0 | 0.0 | 2.0 | 0.00 | 0.00 | 0.00 | 80 | 1022.4 |
| 20260509065023 | 54 | 96 | 1.0 | 2.0 | 0.00 | 0.00 | 0.00 | 81 | 1022.4 |
| 20260509064542 | 54 | 120 | 0.0 | 2.0 | 0.00 | 0.00 | 0.00 | 80 | 1022.4 |
| 20260509064023 | 54 | 125 | 1.0 | 2.0 | 0.00 | 0.00 | 0.00 | 79 | 1022.5 |
| 20260509063521 | 54 | 108 | 0.0 | 2.0 | 0.00 | 0.00 | 0.00 | 80 | 1022.4 |
| 20260509063059 | 54 | 136 | 1.0 | 2.0 | 0.00 | 0.00 | 0.00 | 79 | 1022.4 |
| 20260509062521 | 54 | 166 | 1.0 | 3.0 | 0.00 | 0.00 | 0.00 | 78 | 1022.4 |
| 20260509062021 | 54 | 167 | 1.0 | 3.0 | 0.00 | 0.00 | 0.00 | 79 | 1022.4 |
| 20260509061606 | 54 | 161 | 1.0 | 2.0 | 0.00 | 0.00 | 0.00 | 78 | 1022.4 |
| 20260509061024 | 55 | 179 | 1.0 | 3.0 | 0.00 | 0.00 | 0.00 | 78 | 1022.4 |
| 20260509060521 | 55 | 153 | 1.0 | 3.0 | 0.00 | 0.00 | 0.00 | 78 | 1022.5 |
| 20260509060052 | 55 | 130 | 2.0 | 3.0 | 0.00 | 0.00 | 0.00 | 78 | 1022.4 |
| 20260509055522 | 55 | 144 | 1.0 | 4.0 | 0.00 | 0.00 | 0.00 | 78 | 1022.4 |
| 20260509055020 | 55 | 130 | 2.0 | 5.0 | 0.00 | 0.00 | 0.00 | 77 | 1022.3 |
| 20260509054537 | 55 | 129 | 2.0 | 6.0 | 0.00 | 0.00 | 0.00 | 78 | 1022.3 |
| 20260509054021 | 55 | 160 | 3.0 | 6.0 | 0.00 | 0.00 | 0.00 | 78 | 1022.3 |
| 20260509053523 | 55 | 136 | 2.0 | 4.0 | 0.00 | 0.00 | 0.00 | 78 | 1022.4 |
| 20260509053043 | 55 | 140 | 2.0 | 4.0 | 0.00 | 0.00 | 0.00 | 78 | 1022.2 |
| 20260509052521 | 55 | 155 | 1.0 | 4.0 | 0.00 | 0.00 | 0.00 | 78 | 1022.3 |
| 20260509052021 | 55 | 105 | 2.0 | 6.0 | 0.00 | 0.00 | 0.00 | 77 | 1022.3 |
| 20260509051542 | 55 | 143 | 2.0 | 7.0 | 0.00 | 0.00 | 0.00 | 77 | 1022.4 |
| 20260509051021 | 55 | 137 | 4.0 | 7.0 | 0.00 | 0.00 | 0.00 | 76 | 1022.3 |
| 20260509050523 | 55 | 150 | 4.0 | 6.0 | 0.00 | 0.00 | 0.00 | 76 | 1022.2 |
| 20260509050039 | 55 | 126 | 3.0 | 6.0 | 0.00 | 0.00 | 0.00 | 77 | 1022.3 |
| 20260509045520 | 55 | 150 | 3.0 | 6.0 | 0.00 | 0.00 | 0.00 | 78 | 1022.4 |
| 20260509045020 | 55 | 134 | 3.0 | 8.0 | 0.00 | 0.00 | 0.00 | 76 | 1022.4 |
| 20260509044537 | 55 | 135 | 4.0 | 8.0 | 0.00 | 0.00 | 0.00 | 76 | 1022.3 |
| 20260509044020 | 55 | 119 | 5.0 | 8.0 | 0.00 | 0.00 | 0.00 | 76 | 1022.2 |
| 20260509043524 | 55 | 156 | 4.0 | 8.0 | 0.00 | 0.00 | 0.00 | 76 | 1022.3 |
| 20260509043042 | 55 | 141 | 4.0 | 8.0 | 0.00 | 0.00 | 0.00 | 76 | 1022.2 |
| 20260509042523 | 55 | 129 | 4.0 | 8.0 | 0.00 | 0.00 | 0.00 | 76 | 1022.2 |
| 20260509042024 | 55 | 136 | 4.0 | 6.0 | 0.00 | 0.00 | 0.00 | 76 | 1022.1 |
| 20260509041542 | 55 | 165 | 4.0 | 8.0 | 0.00 | 0.00 | 0.00 | 76 | 1022.1 |
| 20260509041024 | 55 | 104 | 4.0 | 8.0 | 0.00 | 0.00 | 0.00 | 76 | 1022.1 |
| 20260509040523 | 55 | 137 | 4.0 | 7.0 | 0.00 | 0.00 | 0.00 | 76 | 1022.1 |
| 20260509040040 | 55 | 189 | 4.0 | 8.0 | 0.00 | 0.00 | 0.00 | 76 | 1022.1 |
| 20260509035522 | 55 | 146 | 4.0 | 8.0 | 0.00 | 0.00 | 0.00 | 75 | 1022.1 |
| 20260509035020 | 55 | 130 | 3.0 | 8.0 | 0.00 | 0.00 | 0.00 | 76 | 1022.0 |
| 20260509034538 | 55 | 146 | 3.0 | 8.0 | 0.00 | 0.00 | 0.00 | 75 | 1022.0 |
| 20260509034020 | 55 | 146 | 3.0 | 6.0 | 0.00 | 0.00 | 0.00 | 74 | 1021.9 |
| 20260509033523 | 55 | 133 | 3.0 | 5.0 | 0.00 | 0.00 | 0.00 | 75 | 1021.9 |
| 20260509033046 | 55 | 154 | 3.0 | 5.0 | 0.00 | 0.00 | 0.00 | 75 | 1021.9 |
| 20260509032520 | 55 | 131 | 3.0 | 6.0 | 0.00 | 0.00 | 0.00 | 74 | 1021.8 |
| 20260509032022 | 55 | 129 | 2.0 | 6.0 | 0.00 | 0.00 | 0.00 | 75 | 1021.7 |
| 20260509031546 | 55 | 139 | 4.0 | 6.0 | 0.00 | 0.00 | 0.00 | 75 | 1021.7 |
| 20260509031022 | 55 | 144 | 3.0 | 6.0 | 0.00 | 0.00 | 0.00 | 75 | 1021.7 |
| 20260509030524 | 55 | 129 | 3.0 | 7.0 | 0.00 | 0.00 | 0.00 | 75 | 1021.7 |
| 20260509030045 | 55 | 139 | 4.0 | 7.0 | 0.00 | 0.00 | 0.00 | 75 | 1021.7 |
| 20260509025521 | 55 | 140 | 2.0 | 6.0 | 0.00 | 0.00 | 0.00 | 75 | 1021.7 |
| 20260509025026 | 56 | 128 | 2.0 | 6.0 | 0.00 | 0.00 | 0.00 | 75 | 1021.7 |
| 20260509024541 | 56 | 198 | 3.0 | 6.0 | 0.00 | 0.00 | 0.00 | 75 | 1021.6 |
| 20260509024022 | 56 | 105 | 3.0 | 6.0 | 0.00 | 0.00 | 0.00 | 74 | 1021.6 |
| 20260509023522 | 56 | 217 | 3.0 | 6.0 | 0.00 | 0.00 | 0.00 | 73 | 1021.5 |
| 20260509023041 | 56 | 210 | 2.0 | 9.0 | 0.00 | 0.00 | 0.00 | 74 | 1021.6 |
| 20260509022525 | 57 | 142 | 3.0 | 9.0 | 0.00 | 0.00 | 0.00 | 74 | 1021.5 |
| 20260509022022 | 57 | 149 | 3.0 | 7.0 | 0.00 | 0.00 | 0.00 | 73 | 1021.5 |
| 20260509021547 | 58 | 129 | 3.0 | 8.0 | 0.00 | 0.00 | 0.00 | 70 | 1021.4 |
| 20260509021021 | 58 | 191 | 4.0 | 9.0 | 0.00 | 0.00 | 0.00 | 71 | 1021.5 |
| 20260509020521 | 58 | 117 | 4.0 | 10.0 | 0.00 | 0.00 | 0.00 | 69 | 1021.4 |
| 20260509020048 | 59 | 177 | 4.0 | 10.0 | 0.00 | 0.00 | 0.00 | 70 | 1021.4 |
| 20260509015523 | 59 | 231 | 4.0 | 8.0 | 0.00 | 0.00 | 0.00 | 70 | 1021.3 |
| 20260509015023 | 59 | 189 | 4.0 | 9.0 | 0.00 | 0.00 | 0.00 | 69 | 1021.4 |
| 20260509014548 | 59 | 155 | 4.0 | 9.0 | 0.00 | 0.00 | 0.00 | 70 | 1021.3 |
| 20260509014022 | 59 | 174 | 4.0 | 9.0 | 0.00 | 0.00 | 0.00 | 70 | 1021.3 |
| 20260509013522 | 58 | 231 | 4.0 | 9.0 | 0.00 | 0.00 | 0.00 | 71 | 1021.2 |
| 20260509013045 | 58 | 146 | 4.0 | 9.0 | 0.00 | 0.00 | 0.00 | 71 | 1021.2 |
| 20260509012522 | 58 | 125 | 3.0 | 9.0 | 0.00 | 0.00 | 0.00 | 72 | 1021.3 |
| 20260509012022 | 58 | 200 | 4.0 | 9.0 | 0.00 | 0.00 | 0.00 | 72 | 1021.4 |
| 20260509011542 | 58 | 139 | 5.0 | 10.0 | 0.00 | 0.00 | 0.00 | 70 | 1021.2 |
| 20260509011021 | 58 | 162 | 4.0 | 10.0 | 0.00 | 0.00 | 0.00 | 72 | 1021.3 |
| 20260509010522 | 58 | 149 | 4.0 | 10.0 | 0.00 | 0.00 | 0.00 | 72 | 1021.3 |
| 20260509010115 | 58 | 129 | 4.0 | 10.0 | 0.00 | 0.00 | 0.00 | 72 | 1021.3 |
| 20260509005525 | 58 | 226 | 4.0 | 10.0 | 0.00 | 0.00 | 0.00 | 72 | 1021.2 |
| 20260509005025 | 58 | 185 | 5.0 | 9.0 | 0.00 | 0.00 | 0.00 | 71 | 1021.3 |
| 20260509004538 | 59 | 117 | 4.0 | 9.0 | 0.00 | 0.00 | 0.00 | 71 | 1021.3 |
| 20260509004021 | 59 | 153 | 4.0 | 10.0 | 0.00 | 0.00 | 0.00 | 70 | 1021.3 |
| 20260509003522 | 59 | 166 | 4.0 | 10.0 | 0.00 | 0.00 | 0.00 | 69 | 1021.2 |
| 20260509003047 | 59 | 202 | 5.0 | 10.0 | 0.00 | 0.00 | 0.00 | 70 | 1021.2 |
| 20260509002521 | 59 | 130 | 4.0 | 8.0 | 0.00 | 0.00 | 0.00 | 71 | 1021.2 |
| 20260509002022 | 59 | 142 | 5.0 | 8.0 | 0.00 | 0.00 | 0.00 | 70 | 1021.2 |
| 20260509001544 | 59 | 102 | 5.0 | 9.0 | 0.00 | 0.00 | 0.00 | 69 | 1021.2 |
| 20260509001022 | 59 | 168 | 4.0 | 10.0 | 0.00 | 0.00 | 0.00 | 69 | 1021.1 |
| 20260509000521 | 59 | 175 | 5.0 | 10.0 | 0.00 | 0.00 | 0.00 | 69 | 1021.1 |
| 20260509000041 | 59 | 160 | 4.0 | 11.0 | 0.00 | 0.00 | 0.00 | 70 | 1021.2 |
| 20260508235522 | 59 | 139 | 5.0 | 11.0 | 0.00 | 0.00 | 0.00 | 70 | 1021.1 |
| 20260508235022 | 59 | 158 | 4.0 | 8.0 | 0.00 | 0.00 | 0.00 | 69 | 1021.2 |
| 20260508234544 | 59 | 188 | 5.0 | 8.0 | 0.00 | 0.00 | 0.00 | 69 | 1021.2 |
| 20260508234022 | 60 | 270 | 3.0 | 10.0 | 0.00 | 0.00 | 0.00 | 70 | 1021.1 |
| 20260508233522 | 60 | 146 | 4.0 | 10.0 | 0.00 | 0.00 | 0.00 | 70 | 1021.1 |
| 20260508233051 | 59 | 169 | 4.0 | 9.0 | 0.00 | 0.00 | 0.00 | 70 | 1021.1 |
| 20260508232525 | 59 | 177 | 4.0 | 9.0 | 0.00 | 0.00 | 0.00 | 71 | 1021.2 |
| 20260508232022 | 59 | 203 | 4.0 | 9.0 | 0.00 | 0.00 | 0.00 | 71 | 1021.1 |
| 20260508231537 | 59 | 148 | 4.0 | 8.0 | 0.00 | 0.00 | 0.00 | 71 | 1021.1 |
| 20260508231022 | 59 | 179 | 4.0 | 8.0 | 0.00 | 0.00 | 0.00 | 70 | 1021.1 |
| 20260508230521 | 59 | 184 | 4.0 | 8.0 | 0.00 | 0.00 | 0.00 | 71 | 1021.1 |
| 20260508230037 | 59 | 174 | 4.0 | 11.0 | 0.00 | 0.00 | 0.00 | 70 | 1021.1 |
| 20260508225521 | 59 | 163 | 4.0 | 11.0 | 0.00 | 0.00 | 0.00 | 70 | 1021.2 |
| 20260508225024 | 59 | 217 | 5.0 | 11.0 | 0.00 | 0.00 | 0.00 | 71 | 1021.1 |
| 20260508224544 | 58 | 129 | 5.0 | 13.0 | 0.00 | 0.00 | 0.00 | 71 | 1021.0 |
| 20260508224023 | 58 | 154 | 5.0 | 13.0 | 0.00 | 0.00 | 0.00 | 72 | 1021.2 |
| 20260508223523 | 58 | 146 | 6.0 | 13.0 | 0.00 | 0.00 | 0.00 | 70 | 1021.1 |
| 20260508223043 | 58 | 189 | 6.0 | 12.0 | 0.00 | 0.00 | 0.00 | 70 | 1021.1 |
| 20260508222522 | 58 | 141 | 5.0 | 12.0 | 0.00 | 0.00 | 0.00 | 72 | 1021.1 |
| 20260508222022 | 58 | 147 | 5.0 | 12.0 | 0.00 | 0.00 | 0.00 | 71 | 1021.3 |
| 20260508221541 | 58 | 206 | 5.0 | 12.0 | 0.00 | 0.00 | 0.00 | 72 | 1021.3 |
| 20260508221030 | 58 | 176 | 5.0 | 11.0 | 0.00 | 0.00 | 0.00 | 70 | 1021.3 |
| 20260508220522 | 58 | 84 | 5.0 | 10.0 | 0.00 | 0.00 | 0.00 | 72 | 1021.1 |
| 20260508220038 | 58 | 148 | 5.0 | 10.0 | 0.00 | 0.00 | 0.00 | 72 | 1021.1 |
| 20260508215521 | 58 | 133 | 6.0 | 10.0 | 0.00 | 0.00 | 0.00 | 72 | 1021.0 |
| 20260508215022 | 59 | 225 | 5.0 | 10.0 | 0.00 | 0.00 | 0.00 | 72 | 1021.0 |
| 20260508214537 | 59 | 119 | 5.0 | 11.0 | 0.00 | 0.00 | 0.00 | 71 | 1021.1 |
| 20260508214021 | 59 | 144 | 5.0 | 11.0 | 0.00 | 0.00 | 0.00 | 71 | 1021.1 |
| 20260508213521 | 59 | 231 | 5.0 | 10.0 | 0.00 | 0.00 | 0.00 | 71 | 1021.1 |
| 20260508213043 | 59 | 134 | 5.0 | 11.0 | 0.00 | 0.00 | 0.00 | 72 | 1021.1 |
| 20260508212524 | 59 | 211 | 5.0 | 12.0 | 0.00 | 0.00 | 0.00 | 72 | 1020.9 |
| 20260508212021 | 58 | 150 | 6.0 | 13.0 | 0.00 | 0.00 | 0.00 | 72 | 1021.1 |
| 20260508211543 | 58 | 180 | 6.0 | 13.0 | 0.00 | 0.00 | 0.00 | 72 | 1021.0 |